{"data":{"norad_id":57358,"epoch":"2026-09-20T22:18:50.002560Z","epoch_age_seconds":87092,"freshness":"FRESH","line1":"1 57358U 23099AG  26263.92974540 -.00001310  00000+0 -38089-4 0  9998","line2":"2 57358  43.0036 218.6527 0001221 257.6604 102.4111 15.27581614176805","mean_motion":15.27581614,"eccentricity":0.0001221,"inclination_deg":43.0036,"raan_deg":218.6527,"arg_perigee_deg":257.6604,"mean_anomaly_deg":102.4111,"bstar":-3.8089e-5,"rev_number":17680,"period_min":94.266649114042,"perigee_km":482.20651291505,"apogee_km":483.88201337951,"semimajor_km":6861.1812631473,"source":"CELESTRAK","updated_at":"2026-09-21T09:00:33.602225Z"}}